Time,TemperatureF,DewpointF,PressureIn,WindDirection,WindDirectionDegrees,WindSpeedMPH,WindSpeedGustMPH,Humidity,HourlyPrecipIn,Conditions,Clouds,dailyrainin,SolarRadiationWatts/m^2,SoftwareType,DateUTC
2013-08-23 00:01:00,55.0,54.0,-100.00,NW,321,3.0,5.0,98,0.00,,,0.03,0.000000,,2013-08-23 07:01:00,
2013-08-23 00:42:00,55.0,54.0,-100.00,NNW,337,3.0,6.0,98,0.00,,,0.03,0.000000,,2013-08-23 07:42:00,
2013-08-23 00:52:00,55.0,54.0,-100.00,NNW,337,3.0,6.0,98,0.00,,,0.03,0.000000,,2013-08-23 07:52:00,
2013-08-23 01:02:00,55.0,54.0,-100.00,NNW,337,3.0,6.0,98,0.00,,,0.03,0.000000,,2013-08-23 08:02:00,
2013-08-23 01:42:00,54.0,53.0,-100.00,NNW,345,3.0,6.0,98,0.00,,,0.03,0.000000,,2013-08-23 08:42:00,
2013-08-23 01:52:00,54.0,53.0,-100.00,NNW,345,3.0,6.0,98,0.00,,,0.03,0.000000,,2013-08-23 08:52:00,
2013-08-23 02:01:00,54.0,53.0,-100.00,NNW,345,3.0,6.0,98,0.00,,,0.03,0.000000,,2013-08-23 09:01:00,
2013-08-23 02:43:00,54.0,54.0,-100.00,NNW,331,2.0,4.0,99,0.00,,,0.03,0.000000,,2013-08-23 09:43:00,
2013-08-23 02:53:00,54.0,54.0,-100.00,NNW,331,2.0,4.0,99,0.00,,,0.03,0.000000,,2013-08-23 09:53:00,
2013-08-23 03:03:00,54.0,54.0,-100.00,NNW,331,2.0,4.0,99,0.00,,,0.03,0.000000,,2013-08-23 10:03:00,
2013-08-23 03:42:00,54.0,54.0,-100.00,NW,317,3.0,7.0,99,0.01,,,0.04,0.000000,,2013-08-23 10:42:00,
2013-08-23 03:52:00,54.0,54.0,-100.00,NW,317,3.0,7.0,99,0.01,,,0.04,0.000000,,2013-08-23 10:52:00,
2013-08-23 04:02:00,54.0,54.0,-100.00,NW,317,3.0,7.0,99,0.01,,,0.04,0.000000,,2013-08-23 11:02:00,
2013-08-23 04:42:00,54.0,54.0,-100.00,NNW,333,1.0,5.0,99,0.00,,,0.04,0.000000,,2013-08-23 11:42:00,
2013-08-23 04:53:00,54.0,54.0,-100.00,NNW,333,1.0,5.0,99,0.00,,,0.04,0.000000,,2013-08-23 11:53:00,
2013-08-23 05:01:00,54.0,54.0,-100.00,NNW,333,1.0,5.0,99,0.00,,,0.04,0.000000,,2013-08-23 12:01:00,
2013-08-23 05:42:00,54.0,54.0,-100.00,South,170,0.0,3.0,99,0.00,,,0.04,0.000000,,2013-08-23 12:42:00,
2013-08-23 05:52:00,54.0,54.0,-100.00,South,170,0.0,3.0,99,0.00,,,0.04,0.000000,,2013-08-23 12:52:00,
2013-08-23 06:02:00,54.0,54.0,-100.00,South,170,0.0,3.0,99,0.00,,,0.04,0.000000,,2013-08-23 13:02:00,
2013-08-23 06:42:00,54.0,54.0,-100.00,SE,127,0.0,4.0,99,0.00,,,0.04,0.000000,,2013-08-23 13:42:00,
2013-08-23 06:52:00,54.0,54.0,-100.00,SE,127,0.0,4.0,99,0.00,,,0.04,0.000000,,2013-08-23 13:52:00,
2013-08-23 07:02:00,54.0,54.0,-100.00,SE,127,0.0,4.0,99,0.00,,,0.04,0.000000,,2013-08-23 14:02:00,
2013-08-23 07:42:00,55.0,55.0,-100.00,WNW,299,1.0,2.0,99,0.00,,,0.04,5.000000,,2013-08-23 14:42:00,
2013-08-23 07:52:00,55.0,55.0,-100.00,WNW,299,1.0,2.0,99,0.00,,,0.04,5.000000,,2013-08-23 14:52:00,
2013-08-23 08:01:00,55.0,55.0,-100.00,WNW,299,1.0,2.0,99,0.00,,,0.04,5.000000,,2013-08-23 15:01:00,
2013-08-23 08:44:00,56.0,56.0,-100.00,NW,320,1.0,3.0,99,0.00,,,0.03,50.000000,,2013-08-23 15:44:00,
2013-08-23 08:54:00,56.0,56.0,-100.00,NW,320,1.0,3.0,99,0.00,,,0.03,50.000000,,2013-08-23 15:54:00,
2013-08-23 09:05:00,56.0,56.0,-100.00,NW,320,1.0,3.0,99,0.00,,,0.03,50.000000,,2013-08-23 16:05:00,
2013-08-23 09:42:00,58.0,57.0,-100.00,North,11,1.0,3.0,97,0.00,,,0.03,162.000000,,2013-08-23 16:42:00,
2013-08-23 09:53:00,58.0,57.0,-100.00,North,11,1.0,3.0,97,0.00,,,0.03,162.000000,,2013-08-23 16:53:00,
2013-08-23 10:03:00,58.0,57.0,-100.00,North,11,1.0,3.0,97,0.00,,,0.03,162.000000,,2013-08-23 17:03:00,
2013-08-23 10:43:00,58.0,57.0,-100.00,North,352,1.0,4.0,96,0.00,,,0.03,124.000000,,2013-08-23 17:43:00,
2013-08-23 10:53:00,58.0,57.0,-100.00,North,352,1.0,4.0,96,0.00,,,0.03,124.000000,,2013-08-23 17:53:00,
2013-08-23 11:02:00,58.0,57.0,-100.00,North,352,1.0,4.0,96,0.00,,,0.03,124.000000,,2013-08-23 18:02:00,
2013-08-23 11:42:00,58.0,57.0,-100.00,North,11,2.0,5.0,95,0.01,,,0.04,137.000000,,2013-08-23 18:42:00,
2013-08-23 11:52:00,58.0,57.0,-100.00,North,11,2.0,5.0,95,0.01,,,0.04,137.000000,,2013-08-23 18:52:00,
2013-08-23 12:01:00,58.0,57.0,-100.00,North,11,2.0,5.0,95,0.01,,,0.04,137.000000,,2013-08-23 19:01:00,
2013-08-23 12:42:00,59.0,58.0,-100.00,North,5,2.0,5.0,95,0.00,,,0.04,186.000000,,2013-08-23 19:42:00,
2013-08-23 12:52:00,59.0,58.0,-100.00,North,5,2.0,5.0,95,0.00,,,0.04,186.000000,,2013-08-23 19:52:00,
2013-08-23 13:01:00,59.0,58.0,-100.00,North,5,2.0,5.0,95,0.00,,,0.04,186.000000,,2013-08-23 20:01:00,
2013-08-23 13:42:00,61.0,57.0,-100.00,North,359,2.0,6.0,88,0.00,,,0.04,232.000000,,2013-08-23 20:42:00,
2013-08-23 13:52:00,61.0,57.0,-100.00,North,359,2.0,6.0,88,0.00,,,0.04,232.000000,,2013-08-23 20:52:00,
2013-08-23 14:02:00,61.0,57.0,-100.00,North,359,2.0,6.0,88,0.00,,,0.04,232.000000,,2013-08-23 21:02:00,
2013-08-23 14:44:00,61.0,58.0,-100.00,NNW,348,2.0,7.0,89,0.00,,,0.04,227.000000,,2013-08-23 21:44:00,
2013-08-23 14:54:00,61.0,58.0,-100.00,NNW,348,2.0,7.0,89,0.00,,,0.04,227.000000,,2013-08-23 21:54:00,
2013-08-23 15:04:00,61.0,58.0,-100.00,NNW,348,2.0,7.0,89,0.00,,,0.04,227.000000,,2013-08-23 22:04:00,
2013-08-23 15:43:00,63.0,57.0,-100.00,North,7,2.0,6.0,80,0.00,,,0.04,210.000000,,2013-08-23 22:43:00,
2013-08-23 15:53:00,63.0,57.0,-100.00,North,7,2.0,6.0,80,0.00,,,0.04,210.000000,,2013-08-23 22:53:00,
2013-08-23 16:03:00,63.0,57.0,-100.00,North,7,2.0,6.0,80,0.00,,,0.04,210.000000,,2013-08-23 23:03:00,
2013-08-23 16:43:00,63.0,58.0,-100.00,NNW,344,2.0,7.0,83,0.00,,,0.03,211.000000,,2013-08-23 23:43:00,
2013-08-23 16:54:00,63.0,58.0,-100.00,NNW,344,2.0,7.0,83,0.00,,,0.03,211.000000,,2013-08-23 23:54:00,
2013-08-23 17:02:00,63.0,58.0,-100.00,NNW,344,2.0,7.0,83,0.00,,,0.03,211.000000,,2013-08-24 00:02:00,
2013-08-23 17:43:00,63.0,56.0,-100.00,NNW,338,3.0,7.0,79,0.00,,,0.03,228.000000,,2013-08-24 00:43:00,
2013-08-23 17:53:00,63.0,56.0,-100.00,NNW,338,3.0,7.0,79,0.00,,,0.03,228.000000,,2013-08-24 00:53:00,
2013-08-23 18:02:00,63.0,56.0,-100.00,NNW,338,3.0,7.0,79,0.00,,,0.03,228.000000,,2013-08-24 01:02:00,
2013-08-23 18:42:00,65.0,56.0,-100.00,North,359,2.0,6.0,74,0.00,,,0.03,219.000000,,2013-08-24 01:42:00,
2013-08-23 18:53:00,65.0,56.0,-100.00,North,359,2.0,6.0,74,0.00,,,0.03,219.000000,,2013-08-24 01:53:00,
2013-08-23 19:02:00,65.0,56.0,-100.00,North,359,2.0,6.0,74,0.00,,,0.03,219.000000,,2013-08-24 02:02:00,
2013-08-23 19:42:00,62.0,55.0,-100.00,North,352,3.0,6.0,77,0.00,,,0.03,195.000000,,2013-08-24 02:42:00,
2013-08-23 19:52:00,62.0,55.0,-100.00,North,352,3.0,6.0,77,0.00,,,0.03,195.000000,,2013-08-24 02:52:00,
2013-08-23 20:02:00,62.0,55.0,-100.00,North,352,3.0,6.0,77,0.00,,,0.03,195.000000,,2013-08-24 03:02:00,
2013-08-23 20:44:00,57.0,53.0,-100.00,NNW,330,5.0,9.0,88,0.00,,,0.03,54.000000,,2013-08-24 03:44:00,
2013-08-23 20:54:00,57.0,53.0,-100.00,NNW,330,5.0,9.0,88,0.00,,,0.03,54.000000,,2013-08-24 03:54:00,
2013-08-23 21:04:00,57.0,53.0,-100.00,NNW,330,5.0,9.0,88,0.00,,,0.03,54.000000,,2013-08-24 04:04:00,
2013-08-23 21:44:00,56.0,54.0,-100.00,NNW,328,4.0,8.0,92,0.00,,,0.03,0.000000,,2013-08-24 04:44:00,
2013-08-23 21:53:00,56.0,54.0,-100.00,NNW,328,4.0,8.0,92,0.00,,,0.03,0.000000,,2013-08-24 04:53:00,
2013-08-23 22:03:00,56.0,54.0,-100.00,NNW,328,4.0,8.0,92,0.00,,,0.03,0.000000,,2013-08-24 05:03:00,
2013-08-23 22:43:00,56.0,54.0,-100.00,NNW,327,2.0,6.0,92,0.00,,,0.02,0.000000,,2013-08-24 05:43:00,
2013-08-23 22:53:00,56.0,54.0,-100.00,NNW,327,2.0,6.0,92,0.00,,,0.02,0.000000,,2013-08-24 05:53:00,
2013-08-23 23:02:00,56.0,54.0,-100.00,NNW,327,2.0,6.0,92,0.00,,,0.02,0.000000,,2013-08-24 06:02:00,
2013-08-23 23:42:00,56.0,54.0,-100.00,NNW,334,2.0,4.0,94,0.00,,,0.02,0.000000,,2013-08-24 06:42:00,
2013-08-23 23:52:00,56.0,54.0,-100.00,NNW,334,2.0,4.0,94,0.00,,,0.02,0.000000,,2013-08-24 06:52:00,